Weather History for Jackson, WY

Change the Weather History Date:

Saturday, January 12, 2013

  Actual Average Record
Temperature  
Mean Temperature -8 °F -  
Max Temperature 1 °F 26 °F 43 °F (1959)
Min Temperature -16 °F 2 °F -44 °F (1963)
Degree Days  
Heating Degree Days 72    
Moisture  
Dew Point -8 °F    
Average Humidity 88    
Maximum Humidity 92    
Minimum Humidity 78    
Precipitation  
Precipitation 0.00 in - - ()
Sea Level Pressure  
Sea Level Pressure 29.87 in    
Wind  
Wind Speed 4 mph (NNE)    
Max Wind Speed 8 mph    
Max Gust Speed -    
Visibility 8 miles    
Events Snow    
Averages and records for this station are not official NWS values.
T = Trace of Precipitation, MM = Missing Value Source: NWS Daily Summary

Daily Weather History Graph

Daily Weather History Graph

Search for Another Location

Airport:

Trip Planner

Search our weather history database for the weather conditions in past years. The results will help you decide how hot, cold, wet, or windy it might be!

Date:

Astronomy

Jan. 12, 2013 Rise Set
Actual Time 7:54 AM MST 5:08 PM MST
Civil Twilight 7:22 AM MST 5:40 PM MST
Nautical Twilight 6:46 AM MST 6:16 PM MST
Astronomical Twilight 6:12 AM MST 6:50 PM MST
Moon 8:12 AM MST (1/12) 6:45 PM MST (1/12)
Length of Visible Light 10h 18m
Length of Day
9h 14m
New Moon, 1% of the Moon is Illuminated
Jan 12
New Moon
Jan 18
First Quarter
Jan 26
Full
Feb 3
Last Quarter
Feb 10
New

Hourly Weather History & Observations

Time (MST) Temp. Windchill Dew Point Humidity Pressure Visibility Wind Dir Wind Speed Gust Speed Precip Events Conditions
12:15 AM -5.8 °F -21.2 °F -7.6 °F 92% 29.81 in 10.0 mi North 8.1 mph - N/A   Clear
12:35 AM -7.6 °F -23.4 °F -9.4 °F 92% 29.81 in 10.0 mi North 8.1 mph - N/A   Clear
12:55 AM -7.6 °F -22.1 °F -9.4 °F 92% 29.82 in 10.0 mi North 6.9 mph - N/A   Clear
1:15 AM -9.4 °F -22.7 °F -11.2 °F 92% 29.82 in 10.0 mi North 5.8 mph - N/A   Scattered Clouds
1:35 AM -7.6 °F -18.8 °F -9.4 °F 92% 29.83 in 10.0 mi North 4.6 mph - N/A   Mostly Cloudy
1:55 AM -7.6 °F - -9.4 °F 92% 29.83 in 10.0 mi Calm Calm - N/A   Overcast
2:15 AM -5.8 °F -16.7 °F -9.4 °F 84% 29.84 in 10.0 mi North 4.6 mph - N/A   Overcast
2:55 AM -5.8 °F - -9.4 °F 84% 29.84 in 10.0 mi Calm Calm - N/A   Overcast
3:15 AM -5.8 °F -16.7 °F -7.6 °F 92% 29.84 in 10.0 mi NNE 4.6 mph - N/A   Overcast
3:35 AM -5.8 °F -21.2 °F -7.6 °F 92% 29.84 in 10.0 mi NNE 8.1 mph - N/A   Overcast
3:55 AM -5.8 °F -19.9 °F -7.6 °F 92% 29.84 in 10.0 mi NNE 6.9 mph - N/A   Overcast
4:15 AM -5.8 °F -16.7 °F -7.6 °F 92% 29.84 in 5.0 mi NNE 4.6 mph - N/A   Overcast
4:35 AM -5.8 °F - -7.6 °F 92% 29.83 in 10.0 mi Calm Calm - N/A   Overcast
4:55 AM -5.8 °F - -7.6 °F 92% 29.83 in 4.0 mi Calm Calm - N/A   Overcast
5:35 AM -5.8 °F - -7.6 °F 92% 29.84 in 5.0 mi Calm Calm - N/A   Overcast
5:55 AM -5.8 °F - -9.4 °F 84% 29.84 in 9.0 mi Calm Calm - N/A   Overcast
6:15 AM -7.6 °F - -9.4 °F 92% 29.85 in 8.0 mi Calm Calm - N/A   Overcast
6:35 AM -7.6 °F - -9.4 °F 92% 29.86 in 8.0 mi Calm Calm - N/A   Overcast
6:51 AM -7.6 °F - -9.4 °F 92% 29.86 in 8.0 mi Calm Calm - N/A   Mostly Cloudy
7:52 AM -11.2 °F - -14.8 °F 84% 29.87 in 8.0 mi Calm Calm - N/A   Scattered Clouds
8:52 AM -16.6 °F -34.4 °F -18.4 °F 92% 29.90 in 10.0 mi North 8.1 mph - N/A   Clear
9:51 AM -13.0 °F -22.7 °F -16.6 °F 84% 29.92 in 10.0 mi NNE 3.5 mph - N/A   Clear
10:53 AM -5.8 °F - -7.6 °F 92% 29.92 in 10.0 mi Calm Calm - N/A   Clear
11:54 AM -2.2 °F - -5.8 °F 85% 29.89 in 10.0 mi Calm Calm - N/A   Clear
12:51 PM -0.4 °F -8.3 °F -5.8 °F 78% 29.88 in 10.0 mi ESE 3.5 mph - N/A   Partly Cloudy
1:51 PM 1.4 °F -6.2 °F -4.0 °F 78% 29.87 in 10.0 mi SE 3.5 mph - N/A   Clear
2:53 PM 1.4 °F - -4.0 °F 78% 29.86 in 10.0 mi Calm Calm - N/A   Clear
3:55 PM 1.4 °F - -4.0 °F 78% 29.87 in 10.0 mi Calm Calm - N/A   Clear
4:51 PM -2.2 °F - -7.6 °F 78% 29.88 in 10.0 mi Calm Calm - N/A   Scattered Clouds
6:51 PM 1.4 °F - -2.2 °F 85% 29.88 in 4.0 mi Calm Calm - N/A Snow Light Snow
7:54 PM -2.2 °F -12.5 °F -5.8 °F 85% 29.89 in 10.0 mi North 4.6 mph - N/A Snow Light Snow
8:51 PM -5.8 °F -19.9 °F -7.6 °F 92% 29.90 in 8.0 mi North 6.9 mph - N/A Snow Light Snow
8:55 PM -5.8 °F -21.2 °F -7.6 °F 92% 29.90 in 10.0 mi North 8.1 mph - N/A   Mostly Cloudy
9:15 PM -4.0 °F -12.4 °F -5.8 °F 92% 29.90 in 5.0 mi NNE 3.5 mph - N/A   Overcast
9:35 PM -2.2 °F - -5.8 °F 85% 29.90 in 3.0 mi Calm Calm - N/A   Overcast
9:55 PM -2.2 °F - -5.8 °F 85% 29.90 in 3.0 mi Calm Calm - N/A   Overcast
10:15 PM -2.2 °F - -5.8 °F 85% 29.90 in 3.0 mi Calm Calm - N/A   Overcast
10:35 PM -2.2 °F - -5.8 °F 85% 29.90 in 3.0 mi Calm Calm - N/A   Overcast
10:55 PM -2.2 °F - -5.8 °F 85% 29.91 in 4.0 mi Calm Calm - N/A   Overcast
11:15 PM -0.4 °F - -4.0 °F 85% 29.91 in 3.0 mi Calm Calm - N/A   Overcast
11:35 PM -2.2 °F - -5.8 °F 85% 29.91 in 3.0 mi Calm Calm - N/A   Overcast
11:55 PM -2.2 °F - -5.8 °F 85% 29.92 in 5.0 mi Calm Calm - N/A   Overcast